Regional Weather Roundup
Issued by NWS San Angelo, TX

Home | Current Version | Previous Version | Text Only | Print | Product List | Glossary Off
Versions: 1 2 3 4 5 6 7 8 9 10 11 12 13 14 15 16 17 18 19 20 21 22 23 24 25 26 27 28 29 30 31 32 33 34 35 36 37 38 39 40 41 42 43 44 45 46 47 48 49 50

000
ASUS44 KSJT 211710
RWRSJT
WEST CENTRAL TEXAS REGIONAL WEATHER ROUNDUP
NATIONAL WEATHER SERVICE SAN ANGELO TX
1200 PM CDT SAT APR 21 2018

NOTE: "FAIR" INDICATES FEW OR NO CLOUDS BELOW 12,000 FEET WITH NO
SIGNIFICANT WEATHER AND/OR OBSTRUCTIONS TO VISIBILITY.

TXZ049-054-064>066-071>073-076>078-098-099-113-114-127-128-139-140-
154-155-168>170-211800
...LOCATIONS ACROSS WEST CENTRAL TEXAS...

CITY           SKY/WX    TMP DP  RH WIND       PRES   REMARKS
SAN ANGELO     SUNNY     78  31  17 W22G35    29.94S
ABILENE        SUNNY     72  56  57 S18G26    29.89F
DYESS AFB      SUNNY     74  52  46 S22G31    29.87F
JUNCTION       CLOUDY    71  62  73 S13       29.98F
SWEETWATER     SUNNY     73  43  34 SW23      29.93R
BROWNWOOD      CLOUDY    64  57  77 S12G20    29.95F
COLEMAN        PTSUNNY   74  58  57 S15       29.93F
SONORA         MOSUNNY   72  54  53 VRB7G15   30.03R
OZONA          FAIR      75  27  16 NW16G30   30.02S
BRADY          CLOUDY    70  59  68 S21       29.96F
$$

TEXAS PANHANDLE/OKLAHOMA PANHANDLE

CITY           SKY/WX    TMP DP  RH WIND       PRES   REMARKS
AMARILLO       CLOUDY    46  45  96 N17       30.05R FOG     WCI  39
BORGER         CLOUDY    48  46  93 NE10      30.06R
CANADIAN       RAIN      49  49  98 NE6       30.06R
DALHART        CLOUDY    44  43  96 NE15      30.10R WCI  37
DUMAS          CLOUDY    43  42  96 N17G23    30.08S WCI  35
GUYMON         NOT AVBL
HEREFORD       CLOUDY    47  46  96 N16       30.05R
PAMPA          CLOUDY    48  47  95 NE13      30.05S
PERRYTON       CLOUDY    48  46  95 NE12      30.06R
$$

SOUTHERN PANHANDLE/SOUTH PLAINS/ROLLING PLAINS

CITY           SKY/WX    TMP DP  RH WIND       PRES   REMARKS
LUBBOCK        CLOUDY    56  49  77 NW21G26   29.98R
SNYDER         SUNNY     70  47  44 W22G28    29.92R
CHILDRESS      LGT RAIN  52  52 100 NE10G24   29.97F
SEMINOLE       SUNNY     66  36  32 NW20G28   30.02S
$$

PERMIAN BASIN

CITY           SKY/WX    TMP DP  RH WIND       PRES   REMARKS
MIDLAND        SUNNY     71  36  27 NW24G32   29.99S
ODESSA         SUNNY     70  33  25 NW21G29   30.00S
WINK           SUNNY     71  27  19 NW20G31   30.01S
$$

FAR WEST/SOUTHWEST MOUNTAINS/TRANS PECOS

CITY           SKY/WX    TMP DP  RH WIND       PRES   REMARKS
ALPINE         SUNNY     70  11  10 W16       30.13S
DRYDEN           N/A     79  22  12 NW15      29.97F
EL PASO        MOSUNNY   65  21  18 N13       30.11R
FORT STOCKTON  SUNNY     68  26  20 NW13G29   30.04S
GUADALUPE PASS SUNNY     61  26  26 SW22G32   30.10S
MARFA          SUNNY     65  18  16 NW21      30.13R
PECOS          SUNNY     69  27  20 NW14      30.03F
$$

DALLAS/FORT WORTH METROPLEX

CITY           SKY/WX    TMP DP  RH WIND       PRES   REMARKS
DFW AIRPORT    LGT RAIN  58  56  93 S8        29.97R FOG
FTW MEACHAM    CLOUDY    60  58  92 SE12      29.96F
DAL-EXECUTIVE  RAIN      60  57  89 SE10      29.95F FOG
GRAND PRAIRIE  CLOUDY    59  54  82 S6        29.99R
ADDISON        CLOUDY    59  54  82 S8G15     29.99R
MESQUITE       TSTM      59  55  88 SE10      29.97S
LANCASTER      TSTM      59  56  90 S7        30.00S
$$

NORTH CENTRAL TEXAS

CITY           SKY/WX    TMP DP  RH WIND       PRES   REMARKS
SHRMAN/DENISON TSTM      52  51  96 N6        30.02F
GAINESVILLE    LGT RAIN  51  50  96 NE7       30.01F
BRIDGEPORT     LGT RAIN  56  56 100 SE5       29.98S
DENTON         LGT RAIN  56  55  97 E3        29.98S FOG
WAXAHACHIE     LGT RAIN  58  58 100 SE8       29.99F
GRANBURY       CLOUDY    60  56  88 SE8       29.98R
$$

WESTERN NORTH TEXAS

CITY           SKY/WX    TMP DP  RH WIND       PRES   REMARKS
WICHITA FALLS  LGT RAIN  53  51  93 E14       29.97S FOG
VERNON         CLOUDY    54  53  99 E9        29.98S
BRECKENRIDGE   CLOUDY    69  56  63 S17G28    29.91F
COMANCHE       CLOUDY    65  59  81 S12G18    29.95F
$$

CENTRAL AND SOUTH CENTRAL TEXAS

CITY           SKY/WX    TMP DP  RH WIND       PRES   REMARKS
AUSTIN/BERGSTM CLOUDY    64  62  93 SE9       29.99F FOG
WACO           TSTM      61  58  90 S12       29.99R VSB 1
HILLSBORO      RAIN      61  60  96 S8        29.98S
TEMPLE         LGT RAIN  61  60  97 SW7       30.00R
KILLEEN-GRAY   SHOWER    59  55  88 SE5       29.99F
FORT HOOD      LGT RAIN  57  57 100 S7        29.95F FOG
GEORGETOWN     CLOUDY    63  60  90 SE6       30.01R
LAGO VISTA     LGT RAIN  62  62 100 SE7       30.00S VSB 1/2
SAN MARCOS     LGT RAIN  64  63  94 SE3       30.00F FOG
NEW BRAUNFELS  CLOUDY    65  63  93 E3        29.98F FOG
RANDOLPH AFB   CLOUDY    65  64  96 E3        29.99
SAN ANTONIO    CLOUDY    66  64  93 SE13      29.99S
STINSON        CLOUDY    68  67  96 E6        29.97S
PLEASANTON     NOT AVBL
LA GRANGE      CLOUDY    68  65  90 SE3       29.99S
GIDDINGS       DRIZZLE   63  60  92 CALM      30.02S
$$

EAST TEXAS

CITY           SKY/WX    TMP DP  RH WIND       PRES   REMARKS
PARIS          CLOUDY    64  48  56 SE21      29.99F
CLARKSVILLE    NOT AVBL
TYLER          CLOUDY    67  50  54 SE14G25   30.00F
LONGVIEW       CLOUDY    68  52  56 S15       30.04F
PALESTINE      CLOUDY    67  56  66 SE14G22   30.01F
NACOGDOCHES      N/A     66  51  58 SE9       30.07F
$$

TEXAS HILL COUNTRY AND EDWARDS PLATEAU

CITY           SKY/WX    TMP DP  RH WIND       PRES   REMARKS
LLANO          CLOUDY    63  61  94 CALM      30.03R FOG
HORSESHOE BAY  DRIZZLE   61  60  97 CALM      30.00F
KERRVILLE      CLOUDY    64  61  91 S7        30.00F
FREDERICKSBRG  CLOUDY    63  62  95 S6        30.00F FOG
ROCKSPRINGS    CLOUDY    68  63  83 S10       30.06S
HONDO          CLOUDY    71  65  81 S5        29.99R
UVALDE         PTSUNNY   67  65  94 CALM      29.99S FOG
DEL RIO        MOSUNNY   76  61  59 W7        29.96F
$$

SOUTHEAST TEXAS

CITY           SKY/WX    TMP DP  RH WIND       PRES   REMARKS
COLLEGE STN    CLOUDY    67  62  84 SE8       30.01F
CALDWELL       CLOUDY    64  61  88 SE12      30.01F FOG
CROCKETT       PTSUNNY   70  57  64 SE8G20    30.05F
BRENHAM        CLOUDY    68  63  82 E7        30.02S
HUNTSVILLE     MOSUNNY   71  59  65 VRB7      30.03F
CONROE         MOSUNNY   70  62  76 SE13      30.02F
HOUSTON BUSH   CLOUDY    70  63  78 E14       30.02F
HOUSTON HOBBY  CLOUDY    72  68  87 SE14      30.01F
PERLAND        FAIR      73  68  84 SE14G24   30.03F
WHARTON        CLOUDY    76  64  66 SE14      30.00R
$$

THE UPPER TEXAS COAST

CITY           SKY/WX    TMP DP  RH WIND       PRES   REMARKS
ORANGE         PTSUNNY   71  63  74 SE12G17   30.10F
PORT ARTHUR    PTSUNNY   72  62  71 E16G24    30.06F
GALVESTON      CLOUDY    73  68  84 E14       30.02F
ANGLETON       FAIR      76  67  73 SE13G26   29.96F
BAY CITY       FAIR      77  67  71 SE13G20   30.00R HAZE
$$

TEXAS COASTAL BEND, RIO GRANDE PLAINS DEEP SOUTH TEXAS

CITY           SKY/WX    TMP DP  RH WIND       PRES   REMARKS
VICTORIA       CLOUDY    73  68  84 SE10      29.98F
BEEVILLE       CLOUDY    73  70  88 SE8       29.95F
ROCKPORT       CLOUDY    75  70  84 SE14G21   29.96S
PORT ARANSAS   NOT AVBL
PORT LAVACA    CLOUDY    73  67  83 SE10      29.99F
CORPUS CHRISTI CLOUDY    79  70  74 S21G30    29.95R
KINGSVILLE NAS LGT RAIN  78  69  73 SE21      29.93
COTULLA        CLOUDY    72  66  81 E6        29.95R
LAREDO         CLOUDY    76  65  68 SE6       29.94S
BROWNSVILLE    CLOUDY    81  73  76 SE24G31   29.93
PORT ISABEL    LGT RAIN  76  71  85 SE21      29.91F
HEBBRONVILLE   CLOUDY    72  67  84 S6        29.95F
MCALLEN        CLOUDY    85  71  63 S14       29.90S
WESLACO        PTSUNNY   84  69  59 S24G30    29.89F
FALFURRIAS     CLOUDY    78  69  74 SE9       29.93R
EDINBURG       CLOUDY    85  68  56 S16G22    29.90F
$$



USA.gov is the U.S. government's official web portal to all federal, state and local government web resources and services.